TimeEST,TemperatureF,Dew PointF,Humidity,Sea Level PressureIn,VisibilityMPH,Wind Direction,Wind SpeedMPH,Gust SpeedMPH,PrecipitationIn,Events,Conditions,WindDirDegrees,DateUTC
12:54 AM,54.0,51.1,90,30.17,10.0,SSE,4.6,-,N/A,,Clear,160,2007-12-12 05:54:00
1:54 AM,54.0,51.1,90,30.16,10.0,Calm,Calm,-,N/A,,Clear,0,2007-12-12 06:54:00
2:54 AM,48.9,48.9,100,30.17,6.0,North,3.5,-,N/A,,Clear,350,2007-12-12 07:54:00
3:43 AM,46.4,46.4,100,30.21,2.5,NNW,6.9,-,N/A,,Clear,340,2007-12-12 08:43:00
3:50 AM,44.6,44.6,100,30.21,5.0,NNW,3.5,-,N/A,,Clear,340,2007-12-12 08:50:00
3:54 AM,46.0,45.0,96,30.17,5.0,NNW,4.6,-,N/A,,Clear,340,2007-12-12 08:54:00
4:38 AM,44.6,44.6,100,30.20,2.5,Calm,Calm,-,N/A,,Partly Cloudy,0,2007-12-12 09:38:00
4:50 AM,44.6,44.6,100,30.20,1.0,Calm,Calm,-,N/A,,Mist,0,2007-12-12 09:50:00
4:54 AM,45.0,45.0,100,30.16,0.5,Calm,Calm,-,N/A,Fog,Fog,0,2007-12-12 09:54:00
5:07 AM,44.6,44.6,100,30.19,1.2,Calm,Calm,-,N/A,,Scattered Clouds,0,2007-12-12 10:07:00
5:09 AM,44.6,44.6,100,30.19,2.5,Calm,Calm,-,N/A,,Partly Cloudy,0,2007-12-12 10:09:00
5:16 AM,44.6,44.6,100,30.19,5.0,Calm,Calm,-,N/A,,Partly Cloudy,0,2007-12-12 10:16:00
5:47 AM,42.8,42.8,100,30.19,1.5,Calm,Calm,-,N/A,,Clear,0,2007-12-12 10:47:00
5:49 AM,42.8,42.8,100,30.19,0.8,NNW,6.9,-,N/A,,Mist,330,2007-12-12 10:49:00
5:54 AM,43.0,43.0,100,30.17,0.2,Calm,Calm,-,N/A,Fog,Fog,0,2007-12-12 10:54:00
6:08 AM,42.8,42.8,100,30.20,0.5,Calm,Calm,-,N/A,Fog,Fog,0,2007-12-12 11:08:00
6:21 AM,44.6,42.8,93,30.19,1.8,Calm,Calm,-,N/A,,Scattered Clouds,0,2007-12-12 11:21:00
6:32 AM,42.8,42.8,100,30.19,1.0,Calm,Calm,-,N/A,,Mist,0,2007-12-12 11:32:00
6:39 AM,42.8,42.8,100,30.20,0.5,Calm,Calm,-,N/A,Fog,Fog,0,2007-12-12 11:39:00
6:46 AM,42.8,42.8,100,30.20,1.5,Calm,Calm,-,N/A,,Partly Cloudy,0,2007-12-12 11:46:00
6:51 AM,42.8,42.8,100,30.20,3.0,Calm,Calm,-,N/A,,Partly Cloudy,0,2007-12-12 11:51:00
6:54 AM,42.8,42.8,100,30.20,3.0,Calm,Calm,-,N/A,,Partly Cloudy,0,2007-12-12 11:54:00
7:37 AM,42.8,42.8,100,30.20,3.0,Calm,Calm,-,N/A,,Mostly Cloudy,0,2007-12-12 12:37:00
7:54 AM,43.0,43.0,100,30.19,3.0,NW,3.5,-,N/A,,Mostly Cloudy,320,2007-12-12 12:54:00
7:59 AM,44.6,44.6,100,30.20,1.5,Calm,Calm,-,N/A,,Scattered Clouds,0,2007-12-12 12:59:00
8:01 AM,44.6,44.6,100,30.20,3.0,Calm,Calm,-,N/A,,Scattered Clouds,0,2007-12-12 13:01:00
8:54 AM,48.0,48.0,100,30.19,10.0,Calm,Calm,-,N/A,,Clear,0,2007-12-12 13:54:00
9:54 AM,57.9,53.1,84,30.18,10.0,Calm,Calm,-,N/A,,Clear,0,2007-12-12 14:54:00
10:54 AM,66.0,54.0,65,30.17,10.0,Calm,Calm,-,N/A,,Clear,0,2007-12-12 15:54:00
11:54 AM,73.0,52.0,48,30.14,10.0,NW,8.1,-,N/A,,Overcast,310,2007-12-12 16:54:00
12:54 PM,70.0,52.0,53,30.13,10.0,West,4.6,-,N/A,,Overcast,260,2007-12-12 17:54:00
1:54 PM,70.0,53.1,55,30.12,10.0,West,5.8,-,N/A,,Mostly Cloudy,270,2007-12-12 18:54:00
2:54 PM,70.0,54.0,57,30.13,10.0,WNW,5.8,-,N/A,,Overcast,300,2007-12-12 19:54:00
3:54 PM,64.0,55.9,75,30.16,10.0,North,8.1,-,N/A,,Overcast,350,2007-12-12 20:54:00
4:54 PM,64.0,55.9,75,30.14,10.0,Calm,Calm,-,N/A,,Overcast,0,2007-12-12 21:54:00
5:54 PM,63.0,55.9,78,30.14,10.0,Calm,Calm,-,N/A,,Overcast,0,2007-12-12 22:54:00
6:54 PM,59.0,55.0,87,30.16,10.0,NNW,5.8,-,N/A,,Clear,340,2007-12-12 23:54:00
7:54 PM,57.0,55.0,93,30.17,10.0,NNW,4.6,-,N/A,,Clear,340,2007-12-13 00:54:00
8:54 PM,55.0,55.0,100,30.17,6.0,Calm,Calm,-,N/A,,Clear,0,2007-12-13 01:54:00
9:38 PM,53.6,53.6,100,30.18,3.0,North,3.5,-,N/A,,Scattered Clouds,360,2007-12-13 02:38:00
9:40 PM,53.6,53.6,100,30.18,1.8,North,3.5,-,N/A,,Scattered Clouds,360,2007-12-13 02:40:00
9:44 PM,53.6,53.6,100,30.18,0.8,Calm,Calm,-,N/A,,Mostly Cloudy,0,2007-12-13 02:44:00
9:54 PM,53.1,53.1,100,30.14,0.5,NW,3.5,-,N/A,Fog,Fog,310,2007-12-13 02:54:00
10:08 PM,53.6,53.6,100,30.18,0.2,WNW,3.5,-,N/A,Fog,Fog,300,2007-12-13 03:08:00
10:50 PM,53.6,53.6,100,30.17,0.2,Calm,Calm,-,N/A,Fog,Fog,0,2007-12-13 03:50:00
10:54 PM,54.0,54.0,100,30.13,0.2,Calm,Calm,-,N/A,Fog,Fog,0,2007-12-13 03:54:00
11:06 PM,51.8,51.8,100,30.17,0.2,South,3.5,-,N/A,Fog,Fog,190,2007-12-13 04:06:00
11:54 PM,51.1,51.1,100,30.12,0.2,Calm,Calm,-,N/A,Fog,Fog,0,2007-12-13 04:54:00